Location: Lewisville
(33.0462°N, 96.9942°W)
Time: 22:38:44
(UTC-05:00)

Hubble Space Telescope - Pass Details

Date: 11 August 2020
Orbit: 536 x 540 km, 28.5° (Epoch: 22 October)

Event Time Altitude Azimuth Distance (km) Brightness Sun altitude
Exits shadow 05:23:55 27° 196° (SSW) 1,048 1.8 -16.9°
Maximum altitude 05:24:58 31° 167° (SSE) 954 1.8 -16.7°
Drops below altitude 10° 05:28:38 10° 104° (ESE) 1,783 4.1 -16.1°
Sets 05:31:04 0° 94° (E) 2,675 5.3 -15.6°
